Location: Betra
(48.4113°N, 8.6634°E)
Time: 18:08:02
(UTC+00:00)

COSMOS 2428 - Pass Details

Date: 23 May 2024
Orbit: 844 x 856 km, 70.9° (Epoch: 16 June)

Event Time Altitude Azimuth Distance (km) Brightness Sun altitude
Rises 01:57:08 0° 335° (NNW) 3,415 6.3 -12.7°
Reaches altitude 10° 01:59:48 10° 344° (NNW) 2,477 5.7 -12.5°
Maximum altitude 02:05:01 36° 51° (NE) 1,313 4.4 -11.9°
Drops below altitude 10° 02:10:13 10° 117° (ESE) 2,470 5.3 -11.4°
Sets 02:12:52 0° 126° (SE) 3,403 5.9 -11.1°
